GW0085 Weather Reports


time (UTC)temp
C
wind
direction
speed
KPH
gust
KPH
rain 1hr
cm
rain 24hr
cm
rain mn
cm
humidity
%
barometer
mb
20260505153109 15 196 11.3 35.4 0.00 0.03 0.00 72 1008.7
20260505151605 15 152 9.7 33.8 0.00 0.03 0.00 72 1009.0
20260505140106 16 171 9.7 27.4 0.00 0.03 0.00 66 1009.0
20260505124559 13 190 3.2 24.1 0.00 0.03 0.00 72 1009.1
20260505123105 13 140 3.2 22.5 0.00 0.03 0.00 73 1008.9
20260505121556 13 157 8.0 17.7 0.00 0.03 0.00 73 1009.2
20260505120100 12 206 4.8 12.9 0.00 0.03 0.00 78 1008.9
20260505114559 11 148 3.2 14.5 0.00 0.03 0.00 80 1009.0
20260505113103 10 90 1.6 6.4 0.00 0.03 0.00 84 1008.9
20260505111607 10 69 3.2 4.8 0.00 0.03 0.00 86 1008.9
20260505110106 8 0 0.0 4.8 0.00 0.03 0.00 90 1009.0
20260505101603 6 0 0.0 1.6 0.00 0.03 0.00 92 1008.9
20260505100056 5 0 0.0 3.2 0.00 0.03 0.00 91 1008.8
20260505094606 5 0 0.0 4.8 0.00 0.03 0.00 91 1008.6
20260505093112 5 0 0.0 4.8 0.00 0.03 0.00 91 1008.5
20260505091600 5 290 0.0 3.2 0.00 0.03 0.00 90 1008.3
20260505090101 6 292 0.0 3.2 0.00 0.03 0.00 89 1008.5
20260505084559 6 0 0.0 3.2 0.00 0.03 0.00 88 1008.3
20260505083101 7 298 1.6 4.8 0.00 0.03 0.00 87 1008.3
20260505081605 7 308 3.2 6.4 0.00 0.03 0.00 87 1008.3
20260505074610 7 267 1.6 6.4 0.00 0.03 0.00 84 1008.2
20260505073109 7 276 3.2 9.7 0.00 0.03 0.00 85 1008.3
20260505071601 8 295 0.0 6.4 0.00 0.03 0.00 83 1008.3
20260505070057 8 272 1.6 4.8 0.00 0.03 0.00 81 1008.2
20260505064559 9 284 3.2 6.4 0.00 0.03 0.00 80 1008.2
20260505063100 9 0 1.6 12.9 0.00 0.03 0.00 80 1008.2
20260505061628 9 263 3.2 14.5 0.00 0.03 0.00 82 1008.1
20260505060059 8 248 3.2 11.3 0.00 0.03 0.00 86 1008.1
20260505054611 7 0 1.6 6.4 0.00 0.03 0.00 89 1008.0
20260505053059 7 271 1.6 6.4 0.00 0.03 0.00 93 1007.9
20260505051559 5 0 0.0 3.2 0.00 0.03 0.00 92 1007.8
20260505041558 6 0 0.0 3.2 0.00 0.03 0.00 91 1007.7
20260505034558 6 0 0.0 0.0 0.00 0.03 0.03 91 1007.6
20260505033056 6 0 0.0 0.0 0.00 0.03 0.03 91 1007.7
20260505031601 6 0 0.0 0.0 0.00 0.03 0.03 91 1007.6
20260505030108 6 0 0.0 3.2 0.00 0.03 0.03 90 1007.6
20260505024609 6 0 0.0 3.2 0.00 0.03 0.03 90 1007.8
20260505023057 6 0 0.0 3.2 0.00 0.03 0.03 89 1007.8
20260505021612 7 128 0.0 3.2 0.00 0.03 0.03 89 1007.6
20260505014606 7 0 0.0 1.6 0.00 0.03 0.03 88 1007.7
20260505013057 7 0 0.0 1.6 0.00 0.03 0.03 86 1007.5
20260505011557 8 128 1.6 3.2 0.00 0.03 0.03 85 1007.4
20260505010054 8 0 0.0 1.6 0.00 0.03 0.03 83 1007.2
20260505004601 9 0 0.0 0.0 0.00 0.03 0.03 82 1007.2
20260505003056 10 128 1.6 4.8 0.00 0.03 0.03 80 1007.0
20260505001557 10 128 4.8 11.3 0.00 0.03 0.03 78 1007.0
20260505000057 11 0 0.0 8.0 0.00 0.03 0.03 77 1006.7
20260504234556 12 161 0.0 3.2 0.00 0.03 0.03 76 1006.3
20260504233101 12 0 0.0 3.2 0.00 0.03 0.03 73 1006.0
20260504231557 13 161 3.2 6.4 0.00 0.03 0.03 70 1005.8
20260504230056 15 0 0.0 3.2 0.00 0.03 0.03 66 1005.6
20260504224556 15 232 1.6 4.8 0.00 0.03 0.03 61 1005.4
20260504223102 15 246 0.0 9.7 0.00 0.03 0.03 60 1005.3
20260504221608 15 271 3.2 11.3 0.00 0.03 0.03 59 1005.3
20260504220136 15 277 4.8 17.7 0.00 0.03 0.03 58 1005.2
20260504214554 16 196 8.0 16.1 0.00 0.03 0.03 58 1005.0
20260504213117 16 198 4.8 14.5 0.00 0.03 0.03 59 1004.9
20260504211557 16 171 4.8 19.3 0.00 0.03 0.03 59 1005.0
20260504204611 16 269 4.8 16.1 0.00 0.03 0.03 60 1005.0
20260504203057 16 136 6.4 14.5 0.00 0.03 0.03 58 1004.7
20260504201608 16 236 3.2 25.7 0.00 0.03 0.03 61 1004.8
20260504200109 15 217 6.4 19.3 0.00 0.03 0.03 62 1004.9
20260504194559 15 198 8.0 16.1 0.00 0.10 0.03 65 1004.7
20260504193059 14 260 9.7 17.7 0.00 0.10 0.03 68 1004.9
20260504191556 13 259 3.2 12.9 0.03 0.10 0.03 76 1005.2
20260504190057 12 0 4.8 14.5 0.03 0.10 0.03 80 1005.4
20260504184601 11 254 4.8 14.5 0.03 0.28 0.03 80 1005.7
20260504183104 11 189 3.2 19.3 0.03 0.28 0.03 76 1006.0
20260504181604 12 259 6.4 19.3 0.00 0.25 0.00 69 1006.1
20260504180100 13 263 4.8 14.5 0.00 0.25 0.00 63 1005.7
20260504174556 12 193 6.4 17.7 0.00 0.43 0.00 59 1005.4
20260504173101 12 242 9.7 17.7 0.00 0.43 0.00 61 1005.3
20260504171558 12 187 12.9 27.4 0.00 0.43 0.00 60 1005.4